Вернуться в каталог

STARLINK-36779

АктивенСвязьVLEO
NORAD 67869·PAYLOAD·🇺🇸 United States

Запущен Feb 20, 2026 с Vandenberg Space Force Base

Loading…

Ближайшие Пролёты (ближайшие 24 часа)

TLE

СвежийSource: CelesTrak SupGP

Эпоха: Sep 15, 2026, 03:45 UTC

1 67869C 26034V   26258.15673611  .00020389  00000+0  60265-3 0  2585
2 67869  53.1593  39.0409 0001188  90.2769  11.4210 15.34367440    17

Отслеживайте STARLINK-36779 в реальном времени с AllMySat

Download on the App Store